Minot AFB, ND

9:57 AM CDT on October 16, 2019 (GMT -0500)
Minot Air Force Base

Weather History for KMIB - August, 2019

Change the Weather History Date:

Saturday, August 10, 2019

  Actual Average Record
Temperature  
Mean Temperature 66 °F -  
Max Temperature 78 °F 79 °F 96 °F (2018)
Min Temperature 54 °F 54 °F 39 °F (1997)
Cooling Degree Days 1    
Growing Degree Days 16 (Base 50)    
Moisture  
Dew Point 62 °F    
Average Humidity 94    
Maximum Humidity 100    
Minimum Humidity 62    
Precipitation  
Precipitation 0.16 in - - ()
Sea Level Pressure  
Sea Level Pressure 29.94 in    
Wind  
Wind Speed 4 mph (NE)    
Max Wind Speed 16 mph    
Max Gust Speed -    
Visibility 7 miles    
Events Fog , Rain , Thunderstorm    
Averages and records for this station are not official NWS values.
T = Trace of Precipitation, MM = Missing Value Source: NWS Daily Summary

Daily Weather History Graph

Daily Weather History Graph

Search for Another Location

Airport or City:

Astronomy

Aug. 10, 2019 Rise Set
Actual Time 6:32 AM CDT 9:08 PM CDT
Civil Twilight 5:56 AM CDT 9:43 PM CDT
Nautical Twilight 5:11 AM CDT 10:28 PM CDT
Astronomical Twilight 4:19 AM CDT 11:20 PM CDT
Moon 6:02 PM CDT (8/10) 2:02 AM CDT (8/10)
Length of Visible Light 15h 47m
Length of Day
14h 36m
Waxing Gibbous, 79% of the Moon is Illuminated
Aug 10
Waxing Gibbous
Aug 15
Full
Aug 23
Last Quarter
Aug 30
New
Sep 5
First Quarter

Hourly Weather History & Observations

Time (CDT) Temp. Dew Point Humidity Pressure Visibility Wind Dir Wind Speed Gust Speed Precip Events Conditions
12:56 AM 61.2 °F 59.4 °F 94% 29.90 in 10.0 mi Calm Calm - N/A   Clear
1:56 AM 59.9 °F 58.8 °F 96% 29.88 in 6.0 mi South 4.6 mph - N/A   Clear
2:56 AM 59.9 °F 59.4 °F 98% 29.87 in 2.0 mi Calm Calm - N/A   Clear
3:06 AM 60.8 °F 59.0 °F 94% 29.87 in 1.6 mi Calm Calm - N/A   Clear
3:16 AM 59.0 °F 59.0 °F 100% 29.87 in 0.4 mi Calm Calm - N/A Fog Fog
3:26 AM 59.0 °F 59.0 °F 100% 29.88 in 0.8 mi Calm Calm - N/A   Clear
3:36 AM 57.2 °F 57.2 °F 100% 29.88 in 0.4 mi Calm Calm - N/A Fog Fog
3:56 AM 57.4 °F 56.8 °F 98% 29.88 in 0.5 mi Calm Calm - N/A   Clear
4:16 AM 57.2 °F 57.2 °F 100% 29.88 in 0.6 mi Calm Calm - N/A   Clear
4:26 AM 55.4 °F 55.4 °F 100% 29.88 in 0.6 mi Calm Calm - N/A Fog Fog
4:36 AM 57.2 °F 55.4 °F 94% 29.88 in 0.4 mi Calm Calm - N/A   Partly Cloudy
4:46 AM 55.4 °F 55.4 °F 100% 29.88 in 0.5 mi Calm Calm - N/A   Scattered Clouds
4:56 AM 56.1 °F 55.8 °F 99% 29.88 in 0.4 mi Calm Calm - N/A   Partly Cloudy
5:06 AM 57.2 °F 57.2 °F 100% 29.88 in 9.0 mi Calm Calm - N/A   Partly Cloudy
5:26 AM 57.2 °F 57.2 °F 100% 29.88 in 0.6 mi Calm Calm - N/A   Clear
5:56 AM 54.5 °F 54.1 °F 99% 29.88 in 0.8 mi Calm Calm - N/A Fog Fog
6:06 AM 55.4 °F 55.4 °F 100% 29.90 in 0.5 mi Calm Calm - N/A   Clear
6:16 AM 55.4 °F 55.4 °F 100% 29.91 in 0.5 mi Calm Calm - N/A   Clear
6:26 AM 55.4 °F 55.4 °F 100% 29.91 in 1.1 mi Calm Calm - N/A   Clear
6:36 AM 57.2 °F 57.2 °F 100% 29.93 in 10.0 mi Calm Calm - N/A   Partly Cloudy
6:46 AM 59.0 °F 59.0 °F 100% 29.93 in 10.0 mi Calm Calm - N/A   Mostly Cloudy
6:56 AM 59.5 °F 59.2 °F 99% 29.93 in 10.0 mi Calm Calm - N/A   Mostly Cloudy
7:26 AM 60.8 °F 60.8 °F 100% 29.92 in 10.0 mi Calm Calm - N/A   Overcast
7:51 AM 60.8 °F 60.8 °F 100% 29.92 in 10.0 mi Calm Calm - N/A   Overcast
7:56 AM 61.2 °F 61.2 °F 100% 29.91 in 10.0 mi Calm Calm - N/A   Overcast
8:06 AM 60.8 °F 60.8 °F 100% 29.93 in 10.0 mi Calm Calm - N/A   Overcast
8:24 AM 62.6 °F 62.6 °F 100% 29.91 in 10.0 mi Calm Calm - N/A   Overcast
8:56 AM 63.3 °F 63.3 °F 100% 29.91 in 10.0 mi SE 4.6 mph - N/A   Overcast
9:56 AM 64.8 °F 64.8 °F 100% 29.93 in 10.0 mi SE 3.5 mph - N/A   Overcast
10:06 AM 64.4 °F 64.4 °F 100% 29.94 in 10.0 mi SSE 3.5 mph - N/A   Overcast
10:46 AM 64.4 °F 64.4 °F 100% 29.95 in 10.0 mi Calm Calm - N/A   Scattered Clouds
10:56 AM 64.0 °F 63.7 °F 99% 29.96 in 10.0 mi Calm Calm - N/A   Scattered Clouds
11:01 AM 64.4 °F 64.4 °F 100% 29.96 in 10.0 mi Calm Calm - N/A   Light Drizzle
11:19 AM 64.4 °F 64.4 °F 100% 29.98 in 7.0 mi Calm Calm - N/A Rain , Thunderstorm Light Thunderstorms and Rain
11:35 AM 64.4 °F 64.4 °F 100% 29.99 in 9.0 mi Calm Calm - N/A Rain , Thunderstorm Light Rain
11:50 AM 64.4 °F 64.4 °F 100% 30.01 in 5.0 mi WSW 5.8 mph - N/A Rain , Thunderstorm Thunderstorms and Rain
11:56 AM 64.2 °F 63.9 °F 99% 30.01 in 3.0 mi Calm Calm - 0.05 in Rain , Thunderstorm Thunderstorms and Rain
12:01 PM 64.4 °F 64.4 °F 100% 30.00 in 3.0 mi Calm Calm - N/A Rain , Thunderstorm Thunderstorms and Rain
12:02 PM 64.4 °F 64.4 °F 100% 30.00 in 3.0 mi Calm Calm - N/A Rain , Thunderstorm Thunderstorms and Rain
12:05 PM 64.4 °F 64.4 °F 100% 29.99 in 3.0 mi ESE 5.8 mph - N/A Rain , Thunderstorm Light Rain
12:46 PM 64.4 °F 64.4 °F 100% 29.96 in 6.0 mi East 12.7 mph - N/A Rain Light Rain
12:51 PM 64.4 °F 64.4 °F 100% 29.94 in 7.0 mi ESE 11.5 mph - N/A Rain Light Rain
12:56 PM 64.4 °F 64.4 °F 100% 29.94 in 9.0 mi ESE 12.7 mph - 0.08 in   Light Drizzle
12:58 PM 64.4 °F 64.4 °F 100% 29.93 in 10.0 mi SE 12.7 mph - N/A   Partly Cloudy
1:01 PM 64.4 °F 64.4 °F 100% 29.93 in 10.0 mi ESE 13.8 mph - N/A   Partly Cloudy
1:16 PM 64.4 °F 64.4 °F 100% 29.91 in 7.0 mi ESE 13.8 mph - N/A   Mostly Cloudy
1:41 PM 69.8 °F 69.8 °F 100% 29.91 in 10.0 mi SSE 13.8 mph - N/A   Scattered Clouds
2:06 PM 71.6 °F 68.0 °F 88% 29.91 in 10.0 mi South 12.7 mph - N/A   Mostly Cloudy
2:21 PM 71.6 °F 66.2 °F 83% 29.91 in 10.0 mi South 10.4 mph - N/A   Scattered Clouds
2:56 PM 76.3 °F 62.2 °F 62% 29.91 in 10.0 mi SSW 4.6 mph - N/A   Clear
3:56 PM 78.1 °F 64.9 °F 64% 29.91 in 10.0 mi NNW 10.4 mph - N/A   Scattered Clouds
4:56 PM 76.1 °F 63.5 °F 65% 29.93 in 10.0 mi NNW 5.8 mph - N/A   Scattered Clouds
5:56 PM 73.6 °F 64.8 °F 74% 29.94 in 10.0 mi NNE 12.7 mph - N/A   Scattered Clouds
6:56 PM 71.6 °F 62.6 °F 73% 29.95 in 10.0 mi North 13.8 mph - N/A   Mostly Cloudy
7:01 PM 71.6 °F 64.4 °F 78% 29.96 in 10.0 mi North 12.7 mph - N/A   Mostly Cloudy
7:14 PM 69.8 °F 64.4 °F 83% 29.96 in 10.0 mi NNE 10.4 mph - N/A Rain Light Rain
7:35 PM 68.0 °F 64.4 °F 88% 29.96 in 10.0 mi North 12.7 mph - N/A Rain Light Rain
7:42 PM 68.0 °F 64.4 °F 88% 29.96 in 10.0 mi North 13.8 mph - N/A   Mostly Cloudy
7:56 PM 67.8 °F 64.0 °F 88% 29.97 in 10.0 mi North 16.1 mph - 0.03 in   Mostly Cloudy
8:03 PM 68.0 °F 64.4 °F 88% 29.97 in 10.0 mi North 15.0 mph - N/A   Light Drizzle
8:13 PM 68.0 °F 64.4 °F 88% 29.97 in 10.0 mi North 12.7 mph - N/A   Light Drizzle
8:14 PM 68.0 °F 64.4 °F 88% 29.98 in 10.0 mi North 12.7 mph - N/A   Mostly Cloudy
8:19 PM 68.0 °F 64.4 °F 88% 29.98 in 10.0 mi North 11.5 mph - N/A   Mostly Cloudy
8:34 PM 66.2 °F 62.6 °F 88% 29.98 in 10.0 mi NNE 11.5 mph - N/A   Overcast
8:56 PM 66.4 °F 61.7 °F 85% 29.99 in 10.0 mi North 10.4 mph - 0.00 in   Overcast
9:16 PM 66.2 °F 62.6 °F 88% 29.99 in 10.0 mi NNE 11.5 mph - N/A   Overcast
9:26 PM 66.2 °F 62.6 °F 88% 29.99 in 10.0 mi NNE 10.4 mph - N/A   Overcast
9:56 PM 65.8 °F 61.5 °F 86% 30.01 in 10.0 mi North 13.8 mph - N/A   Mostly Cloudy
10:01 PM 66.2 °F 62.6 °F 88% 30.01 in 10.0 mi North 13.8 mph - N/A   Overcast
10:21 PM 64.4 °F 60.8 °F 88% 30.03 in 10.0 mi North 8.1 mph - N/A   Overcast
10:36 PM 64.4 °F 60.8 °F 88% 30.04 in 10.0 mi North 10.4 mph - N/A   Overcast
10:56 PM 63.0 °F 60.6 °F 92% 30.06 in 10.0 mi North 10.4 mph - N/A   Overcast
11:01 PM 62.6 °F 60.8 °F 94% 30.06 in 10.0 mi North 10.4 mph - N/A   Overcast
11:51 PM 62.6 °F 60.8 °F 94% 30.04 in 10.0 mi North 9.2 mph - N/A   Overcast
11:56 PM 61.9 °F 59.9 °F 93% 30.05 in 10.0 mi North 9.2 mph - N/A   Overcast